Flag for Russia Weather past 2 weeks in Yuzhno-Sakhalinsk, Russia

Now
50 °F

Scattered clouds.


Feels Like: 45 °F
Forecast: 36 / 48 °F
Wind: 13 mph from Northwest

Location: Yuzhno Airport-Sakhalinsk

Current Time: May 24, 2015 at 6:03:53 PM

Latest Report: May 24, 2015 at 5:30 PM


Visibility: N/A

Pressure: 29.71 "Hg

Humidity: 58%

Dew point: 36 °F

Location of Yuzhno-SakhalinskLocation

Historic Weather in Yuzhno-Sakhalinsk — Graph

°F

Yuzhno-Sakhalinsk temperature yesterday

Maximum temperature yesterday: 64 °F (at 11:30 AM)
Minimum temperature yesterday: 45 °F (at 12:00 AM)
Average temperature yesterday: 55 °F

Past Weeks' High & Low Weather Summary

 TemperatureHumidityPressure
High70 °F (May 11, 12:00 PM)100% (May 10, 2:00 AM)30.04 "Hg (May 10, 2:00 AM)
Low28 °F (May 10, 2:00 AM)27% (May 10, 4:00 PM)29.36 "Hg (May 17, 7:00 AM)
Average45 °F76%29.66 "Hg
* Reported May 9 4:00 PM — May 24 4:30 PM, Yuzhno-Sakhalinsk, Weather by CustomWeather, © 2015

Note: Actual official high and low records may vary slightly from our data, if they occured in-between our weather recording intervals... More about our weather records

Advertising

Yuzhno-Sakhalinsk weather history for previous 24 hours

 ConditionsComfort  
Time TempWeatherWind HumidityBarometerVisibility
4:30 PM
Sun, May 24
52 °FPartly sunny.13 mph50%29.68 "HgN/A
4:00 PM55 °FPartly sunny.17 mph44%29.65 "HgN/A
3:30 PM55 °FScattered clouds.17 mph44%29.65 "HgN/A
3:00 PM57 °FPartly sunny.13 mph36%29.62 "HgN/A
2:30 PM55 °FScattered clouds.17 mph41%29.62 "HgN/A
2:00 PM54 °FScattered clouds.10 mph54%29.59 "HgN/A
1:30 PM54 °FScattered clouds.13 mph58%29.59 "HgN/A
12:30 PM48 °FScattered clouds.17 mph71%29.59 "HgN/A
12:00 PM46 °FPartly sunny.20 mph76%29.56 "HgN/A
11:30 AM45 °FPartly sunny.20 mph81%29.56 "HgN/A
11:00 AM46 °FPartly sunny.20 mph76%29.53 "HgN/A
10:30 AM50 °FPartly sunny.22 mph67%29.50 "HgN/A
10:00 AM50 °FPartly sunny.22 mph67%29.50 "HgN/A
9:30 AM48 °FPartly sunny.17 mph76%29.47 "HgN/A
9:00 AM48 °FPartly sunny.17 mph82%29.45 "HgN/A
8:30 AM46 °FPartly sunny.20 mph87%29.45 "HgN/A
8:00 AM48 °FPartly sunny.8 mph94%29.42 "HgN/A
7:30 AM46 °FPartly sunny.6 mph100%29.42 "HgN/A
7:00 AM46 °FScattered clouds.1 mph100%29.39 "HgN/A
6:30 AM46 °FScattered clouds.1 mph100%29.42 "HgN/A
6:00 AM45 °FSprinkles. Scattered clouds.1 mph100%29.42 "HgN/A
5:30 AM46 °FSprinkles. Scattered clouds.1 mph100%29.42 "Hg4 mi
5:00 AM46 °FSprinkles. Scattered clouds.3 mph100%29.42 "Hg4 mi
4:00 AM46 °FSprinkles. Passing clouds.3 mph100%29.42 "Hg4 mi
3:00 AM46 °FSprinkles. Passing clouds.1 mph100%29.45 "Hg4 mi
2:00 AM46 °FSprinkles. Passing clouds.1 mph100%29.45 "Hg4 mi
1:00 AM46 °FSprinkles. Passing clouds.1 mph100%29.47 "Hg4 mi
12:00 AM46 °FSprinkles. Passing clouds.8 mph100%29.50 "Hg5 mi
11:00 PM
Sat, May 23
48 °FSprinkles. Passing clouds.10 mph87%29.53 "HgN/A
10:30 PM50 °FSprinkles. Passing clouds.8 mph76%29.53 "HgN/A
10:00 PM52 °FClear.6 mph58%29.50 "HgN/A
9:30 PM52 °FClear.3 mph58%29.53 "HgN/A
9:00 PM54 °FClear.3 mph51%29.53 "HgN/A
8:30 PM54 °FClear.6 mph47%29.53 "HgN/A
8:00 PM54 °FClear.6 mph47%29.53 "HgN/A
7:30 PM55 °FClear.1 mph41%29.53 "HgN/A
7:00 PM57 °FClear.3 mph41%29.53 "HgN/A
6:30 PM61 °FClear.10 mph34%29.50 "HgN/A
6:00 PM61 °FClear.17 mph31%29.50 "HgN/A
Weather by CustomWeather, © 2015

See weather overviewHow to use our weather pages